Location: Jackson Park
(37.2862°N, 79.9123°W)
Time: 20:48:23
(UTC+00:00)

S-56A Canister/Altair - Pass Details

Date: 10 May 2026
Orbit: 633 x 2484 km, 38.9° (Epoch: 6 June)

Event Time Altitude Azimuth Distance (km) Brightness Sun altitude
Rises 03:12:48 0° 241° (WSW) 2,910 10.6 -27.9°
Enters shadow 03:13:30 - 241° (WSW) 2,623 10.3 -28.0°
Reaches altitude 10° 03:15:00 10° 238° (WSW) 2,009 - -28.1°
Maximum altitude 03:19:23 62° 158° (SSE) 772 - -28.6°
Drops below altitude 10° 03:24:42 10° 78° (ENE) 2,429 - -29.2°
Sets 03:27:37 0° 75° (ENE) 3,588 - -29.4°
